Location: Bishopstone
(51.0167°N, 1.9000°W)
Time: 00:05:48
(UTC+00:00)

Cosmos 2227 Rocket - Pass Details

Date: 16 September 2019
Orbit: 837 x 847 km, 71.0° (Epoch: 20 October)

Event Time Altitude Azimuth Distance (km) Brightness Sun altitude
Exits shadow 23:02:07 - 262° (W) 2,899 5.1 -35.0°
Reaches altitude 10° 23:03:33 10° 270° (W) 2,465 4.8 -35.1°
Maximum altitude 23:07:59 23° 322° (NW) 1,730 4.3 -35.3°
Drops below altitude 10° 23:12:27 10° 14° (NNE) 2,478 5.2 -35.5°
Sets 23:15:27 0° 29° (NNE) 3,418 5.9 -35.6°
